Lapse_Rate
6.9 6.8 6.9 6.9 7.0 7.0 7.0 6.9 6.9 6.8 6.9 6.9 6.8 6.7 6.7 6.8 7.0 7.1 7.3 7.7 8.1 8.2 8.3 8.3 8.0 8.3 8.3 8.4 8.5 8.5 8.0 8.1 8.3 8.2 8.3 8.4 8.2 8.0 7.5 7.1 7.1 7.0 6.9 6.7 6.2
6.8 6.8 6.8 6.8 6.9 6.9 6.9 6.9 6.9 6.7 6.8 7.0 6.8 6.7 6.7 6.9 7.1 6.9 7.2 7.7 8.2 8.2 8.3 8.2 8.2 8.4 8.4 8.5 8.6 8.5 8.2 8.5 8.4 8.3 8.4 8.2 8.2 7.9 7.3 7.1 6.7 6.7 6.6 6.4 6.0
6.8 6.8 6.8 6.8 6.9 6.8 6.8 6.8 6.7 6.7 6.9 6.9 6.8 6.8 6.7 6.9 7.0 6.7 7.1 7.7 8.2 8.3 8.2 8.2 8.4 8.5 8.6 8.8 8.8 8.7 8.5 8.4 8.6 8.4 8.3 8.1 8.1 7.8 7.1 6.9 6.5 6.4 6.5 6.3 6.0
6.8 6.7 6.7 6.8 6.7 6.8 6.8 6.7 6.6 6.6 6.9 6.9 6.7 6.9 6.8 6.9 6.9 6.8 7.1 7.9 8.3 8.3 8.2 8.3 8.4 8.7 8.8 8.9 8.8 8.8 9.0 8.9 8.7 8.5 8.2 8.2 7.9 7.5 6.9 6.7 6.5 6.0 6.2 5.9 6.1
6.7 6.7 6.7 6.8 6.7 6.7 6.7 6.6 6.5 6.6 6.9 6.9 6.8 6.9 6.9 7.0 7.2 7.0 7.4 7.8 8.2 8.3 8.4 8.4 8.4 8.5 8.6 8.8 9.0 8.9 9.3 9.3 8.6 8.3 8.2 8.0 7.9 7.4 7.3 6.9 6.7 6.5 6.5 6.1 6.1
6.7 6.6 6.6 6.7 6.7 6.7 6.6 6.5 6.4 6.6 6.9 6.9 6.9 6.9 7.0 7.0 7.2 7.1 7.4 7.8 7.9 8.2 8.2 8.2 8.1 8.3 8.6 8.7 8.7 9.0 9.2 9.1 8.6 8.4 7.9 7.9 8.0 7.6 7.3 7.2 7.4 6.9 6.6 6.5 5.8
6.5 6.6 6.6 6.7 6.6 6.7 6.6 6.5 6.4 6.6 6.8 6.9 7.0 6.9 7.0 7.1 7.2 7.0 7.4 7.7 7.9 8.2 8.0 8.0 8.0 8.2 8.5 8.6 8.5 8.7 9.0 8.7 8.4 8.1 8.0 7.9 8.2 8.3 7.9 8.2 7.6 7.6 7.1 7.0 6.9
6.5 6.5 6.6 6.6 6.6 6.7 6.6 6.3 6.3 6.5 6.8 6.9 6.9 6.9 7.0 7.1 7.1 6.9 7.3 7.6 8.0 8.0 8.0 8.0 8.0 8.2 8.5 8.7 8.5 8.6 8.6 8.5 8.4 8.1 7.6 7.7 8.1 8.5 8.5 8.3 7.7 7.8 7.5 7.2 7.3
6.3 6.4 6.7 6.6 6.6 6.8 6.5 6.3 6.3 6.4 6.6 6.8 6.9 6.8 7.0 7.0 7.0 6.9 7.2 7.8 8.1 8.2 8.3 8.3 8.0 8.0 8.3 8.8 8.8 8.6 8.6 8.3 8.2 8.1 8.3 7.9 8.4 8.7 8.6 8.2 8.2 8.2 7.4 7.2 7.2
6.1 6.2 6.5 6.6 6.6 6.7 6.6 6.2 6.2 6.3 6.6 6.7 7.0 6.8 6.9 7.1 7.0 6.9 7.2 7.6 8.0 8.1 8.4 8.3 7.9 8.0 8.2 8.5 8.4 8.5 8.5 8.4 8.2 8.5 8.6 8.4 8.5 8.4 8.3 8.1 8.2 8.3 7.9 7.8 7.7
6.0 6.1 6.0 6.4 6.7 6.8 6.6 6.1 6.0 6.1 6.6 6.8 7.1 6.8 6.8 7.0 6.9 6.9 7.3 7.5 7.9 8.1 8.1 8.3 8.5 8.5 8.3 8.7 8.5 8.6 8.4 8.4 8.4 8.6 8.6 8.7 8.8 8.4 8.4 8.1 8.0 8.2 8.3 8.3 8.2
6.1 6.1 6.0 6.3 6.3 6.6 6.5 5.8 5.8 6.2 6.7 6.8 6.9 7.2 6.7 6.9 6.8 7.0 7.3 7.6 7.9 8.1 7.9 8.2 8.6 8.5 8.4 8.3 8.4 8.2 8.1 8.0 8.6 8.8 8.8 8.8 8.7 8.2 8.1 8.3 8.3 8.2 8.2 8.2 8.3
6.0 6.1 6.2 6.2 6.2 6.3 6.2 5.6 5.8 5.8 5.9 7.3 7.1 7.4 6.7 7.0 6.9 7.1 7.3 7.6 7.9 8.1 7.9 8.2 8.3 8.4 8.2 8.1 8.3 8.1 8.2 8.2 8.3 8.3 8.6 8.5 8.6 8.5 8.2 8.1 8.1 8.1 8.0 7.9 8.2
5.8 5.9 5.9 6.2 6.2 6.2 5.8 5.7 5.7 5.6 5.7 7.1 7.5 7.3 7.0 7.1 7.0 7.2 7.4 7.7 7.8 8.2 8.1 7.8 8.0 8.1 8.1 8.1 8.0 8.0 8.1 8.0 8.1 7.8 8.2 8.2 7.9 8.7 8.4 7.9 7.8 7.8 7.9 8.1 8.1
5.8 5.8 5.9 6.0 6.5 6.1 5.6 5.8 5.7 5.7 4.4 6.8 7.0 6.8 7.0 7.2 7.0 7.5 7.5 7.6 7.9 8.1 8.2 7.7 7.8 7.5 7.9 8.3 8.2 8.0 8.0 8.2 8.1 8.0 8.1 8.5 8.2 8.5 7.9 7.7 7.9 8.1 7.9 8.1 8.2
5.9 5.9 5.9 6.2 6.3 5.4 5.3 5.7 5.7 5.5 4.9 6.7 6.8 6.9 6.9 6.8 6.9 7.1 7.2 7.5 7.9 7.9 8.2 7.6 8.1 8.0 7.8 8.0 8.4 8.3 8.2 8.2 8.1 8.2 7.6 8.6 8.0 8.4 8.4 8.3 8.3 8.0 7.9 8.1 8.1
5.9 5.9 6.0 6.4 6.5 5.0 5.2 5.6 5.4 4.8 6.6 6.6 6.8 7.0 7.1 7.0 6.7 7.0 7.2 7.6 7.7 7.9 8.1 7.8 8.3 8.5 8.1 8.2 8.5 8.3 8.1 7.7 7.1 6.5 6.8 8.5 8.2 8.5 8.8 8.6 8.3 8.3 8.2 8.1 8.1
6.4 6.1 6.1 6.5 5.7 4.9 5.0 5.2 4.8 5.4 7.0 6.9 6.9 7.0 7.1 7.1 6.9 6.9 7.1 7.4 7.6 8.0 8.3 7.8 8.3 8.2 8.4 8.4 8.7 8.5 8.3 8.0 7.2 6.1 6.4 8.4 8.1 8.7 8.9 8.9 8.8 8.6 8.1 8.1 8.0
6.5 6.3 6.3 6.9 5.9 4.9 5.0 4.7 4.7 6.3 7.0 6.9 7.0 7.0 6.9 7.0 7.0 6.9 7.2 7.4 7.6 7.7 8.3 7.9 8.1 8.2 8.2 8.6 8.8 8.7 8.7 8.4 8.2 7.2 7.1 8.4 8.5 8.6 8.9 8.9 8.7 8.6 8.2 8.3 8.3
6.6 6.4 6.7 7.2 5.8 5.3 5.0 4.1 4.6 6.6 6.6 6.8 6.8 7.1 7.2 7.2 7.1 7.0 7.2 7.4 7.8 7.9 8.0 8.3 8.2 8.4 8.3 8.6 8.6 8.5 8.6 8.3 8.2 7.3 7.4 7.8 8.2 8.6 8.7 8.6 8.7 8.7 8.7 8.4 8.3
6.8 6.3 7.0 7.4 6.0 5.4 4.3 3.7 4.3 6.8 6.6 6.7 6.8 7.1 7.3 7.3 7.3 7.1 7.3 7.6 7.6 8.0 8.0 8.2 8.2 8.5 8.6 8.9 9.0 8.8 8.6 8.6 8.5 8.2 6.5 6.0 7.9 8.6 8.6 8.5 8.6 8.5 8.6 8.6 8.5
6.6 6.0 7.0 6.8 6.1 4.4 4.3 3.7 4.3 6.7 6.7 6.5 6.7 7.0 7.2 7.3 7.4 7.3 7.4 7.7 7.9 8.2 8.2 8.3 8.3 8.2 8.3 9.0 9.1 8.7 8.3 8.9 8.4 8.0 8.0 7.7 7.9 8.6 8.6 8.5 8.3 8.4 8.4 8.5 8.6
6.1 5.9 6.2 6.7 5.5 4.2 4.2 4.4 4.6 6.8 7.0 6.7 6.6 6.6 6.7 7.2 7.3 7.5 7.7 7.9 8.0 8.2 8.3 8.5 8.0 8.1 8.2 8.5 8.5 8.3 8.9 8.9 8.5 8.3 8.0 6.8 7.8 8.5 8.5 8.5 8.4 8.2 8.2 8.0 8.0
5.1 5.2 5.8 6.2 6.1 4.4 4.6 4.4 4.8 7.0 7.2 6.5 6.7 6.6 6.8 7.0 7.3 7.5 7.8 8.1 8.2 8.3 8.4 8.8 8.7 8.5 8.2 8.7 9.0 9.0 9.1 8.9 8.6 8.2 8.2 8.0 8.2 8.3 8.2 8.3 8.3 8.1 8.1 7.8 7.7
4.7 5.3 5.8 5.3 5.3 4.1 4.3 4.7 5.5 5.9 6.5 6.4 6.9 6.9 6.7 6.8 7.2 7.6 7.8 8.0 8.4 8.5 8.5 8.5 8.5 8.7 8.8 8.7 8.8 8.9 8.8 8.8 8.6 8.3 8.2 8.3 8.2 8.3 8.3 8.2 8.3 8.4 8.2 8.0 7.9
5.0 5.4 5.0 6.4 6.4 5.0 4.4 3.9 4.5 6.4 6.3 6.7 6.6 7.2 7.0 6.8 7.2 7.6 8.0 8.1 8.3 8.5 8.7 8.7 8.6 8.8 8.5 8.5 8.6 8.5 8.6 8.5 8.5 8.2 8.0 8.2 8.1 8.1 8.2 8.4 8.4 8.4 8.3 8.1 8.0
5.6 5.7 5.0 5.5 5.9 4.9 5.1 4.9 5.3 6.8 6.8 6.7 6.8 7.5 7.1 7.3 7.9 7.7 7.4 7.8 8.0 8.5 8.8 8.7 8.8 8.7 8.2 8.4 8.3 8.0 8.2 8.4 8.3 8.2 8.1 7.9 8.1 8.1 8.0 8.1 8.1 8.1 8.2 8.3 8.0
Wind_Speed
10 11 11 11 13 14 15 15 17 18 18 19 21 22 22 22 22 2 5 9 4 11 3 1 1 2 3 1 3 4 4 3 5 2 3 2 3 2 0 1 4 6 2 12 12
11 11 11 12 13 14 15 16 17 18 18 18 20 20 20 20 4 6 12 9 17 3 3 3 3 4 2 1 1 3 4 7 6 3 5 5 4 3 3 3 5 12 16 16 12
12 12 12 13 13 15 16 17 17 17 18 17 18 19 20 15 4 5 5 12 14 9 1 2 1 1 1 1 4 4 5 6 5 5 7 6 2 2 3 2 5 17 16 15 14
14 14 13 14 14 15 16 17 18 17 18 17 16 19 22 2 1 2 7 4 11 9 2 2 2 2 2 3 3 3 7 7 6 7 6 6 3 3 1 2 13 20 18 17 15
15 15 15 14 15 16 17 17 17 18 17 16 14 16 5 3 8 5 4 9 7 4 5 4 2 2 2 5 5 3 6 1 6 6 1 4 5 3 4 10 16 16 17 18 14
16 16 16 15 15 16 17 18 18 18 17 14 12 13 2 4 3 2 7 3 3 2 3 4 5 4 3 4 2 3 9 5 4 5 2 2 1 2 5 10 14 18 14 17 18
17 17 17 16 16 16 17 18 18 19 16 12 9 3 1 13 1 12 6 4 5 5 3 4 3 2 2 6 2 3 6 5 2 3 2 2 1 3 4 16 16 14 15 13 15
18 18 17 16 16 16 19 20 21 20 15 8 2 1 7 4 6 9 4 5 6 6 4 3 4 5 1 4 4 4 4 3 5 2 2 5 4 4 11 16 13 15 13 14 15
19 19 18 16 15 15 19 24 25 19 8 3 1 1 9 8 3 8 7 5 3 3 4 3 2 1 5 2 4 2 4 2 3 7 2 4 2 6 8 11 13 14 14 14 11
18 18 19 15 13 13 19 26 12 2 3 4 3 3 6 1 3 4 5 5 3 3 4 4 4 2 3 4 1 2 4 1 5 1 3 5 7 4 9 9 12 12 12 12 13
17 18 16 14 10 8 8 4 3 2 2 8 5 4 5 7 4 3 4 5 3 5 3 1 3 4 8 6 3 3 4 7 8 12 9 9 5 5 8 6 8 9 12 13 16
17 16 14 11 7 4 2 1 3 0 8 11 16 9 8 3 4 4 3 5 5 5 3 4 4 7 4 2 4 2 2 7 9 6 8 5 8 5 7 7 12 13 13 15 13
16 15 12 9 4 0 3 6 5 4 4 7 6 6 6 9 7 7 5 3 4 5 5 6 5 1 3 3 3 3 4 5 7 6 3 4 4 5 5 5 7 12 17 15 18
15 16 11 6 1 3 3 2 10 6 2 6 5 7 7 8 5 9 7 6 1 9 6 5 3 5 2 5 4 5 6 4 2 2 3 3 4 4 7 11 12 13 13 16 17
16 15 13 15 0 3 2 8 2 2 3 4 4 3 8 11 2 6 5 3 8 5 6 6 6 5 5 7 5 6 3 2 2 3 1 3 3 5 5 8 14 17 14 16 18
16 15 14 4 1 6 12 7 2 4 7 3 7 7 6 3 2 1 5 3 3 5 2 4 2 4 6 4 3 3 4 5 3 2 2 3 3 5 5 15 15 15 16 17 16
18 14 10 7 3 3 4 1 3 4 5 5 6 6 6 7 3 2 6 6 6 4 3 1 3 2 2 2 3 5 5 3 4 4 5 4 2 8 5 7 8 14 17 14 14
18 13 9 9 2 6 1 2 8 7 6 5 4 5 8 5 5 6 6 5 4 4 4 5 5 4 1 3 4 2 6 5 4 2 4 3 4 6 5 7 3 8 8 9 14
14 2 5 5 9 2 1 12 8 7 4 4 4 5 4 5 6 4 8 8 9 8 8 5 4 2 3 2 3 1 2 3 6 3 3 3 6 9 7 3 3 5 6 8 10
4 3 9 13 15 3 5 14 6 5 4 4 8 6 8 7 7 7 8 5 6 10 5 7 1 3 1 2 4 4 4 3 2 2 3 4 4 5 6 7 0 5 7 7 5
4 4 7 19 7 4 13 9 7 10 3 3 3 1 7 8 9 6 7 5 7 5 5 5 5 2 2 5 6 2 3 3 4 4 4 1 5 6 7 7 7 4 8 8 8
4 6 11 13 6 5 14 8 5 19 3 3 3 4 4 8 8 9 10 8 8 9 10 7 6 5 10 2 3 4 7 5 4 4 1 4 6 4 9 8 5 8 5 6 7
7 6 9 12 11 12 9 16 7 9 6 7 5 1 4 4 5 7 7 5 7 8 9 8 1 2 7 5 3 5 5 4 5 4 6 5 6 3 6 7 9 9 8 8 7
5 9 5 8 15 18 17 13 17 13 15 2 3 2 1 3 3 4 6 2 2 7 4 9 4 7 6 8 3 3 3 5 5 3 4 6 6 6 8 7 5 8 7 8 9
5 9 7 12 19 16 16 11 20 10 13 13 5 7 3 3 4 4 3 3 2 4 3 5 6 5 4 3 4 3 4 6 6 5 6 6 7 8 6 8 8 7 3 4 7
7 6 5 4 17 24 19 19 21 18 6 8 12 7 9 10 7 3 4 4 5 3 4 2 3 3 3 2 2 4 6 4 4 3 6 5 6 4 2 4 7 6 7 5 4
10 3 3 6 18 19 26 21 19 18 15 14 15 13 9 13 8 9 8 4 5 10 7 5 6 4 5 2 2 6 8 8 6 5 5 6 8 3 4 7 5 5 6 6 7
Wind_Direction
289 298 306 308 311 315 317 317 321 322 325 325 323 323 323 321 319 255 248 220 190 231 78 79 118 168 116 158 157 140 90 236 255 182 240 186 168 173 215 9 47 354 89 120 120
279 286 295 299 305 311 311 314 319 321 322 324 322 322 323 327 320 254 248 221 219 86 86 61 68 351 15 164 233 125 140 218 201 199 197 182 200 146 126 166 57 81 100 111 121
270 277 286 294 300 303 309 314 318 319 320 325 323 323 324 329 321 252 10 226 220 206 307 68 134 99 328 140 224 189 210 211 209 184 150 164 280 114 138 186 152 141 139 137 136
267 273 279 287 294 298 307 313 315 318 321 326 328 326 321 11 330 318 12 4 197 175 118 89 81 80 315 286 241 243 227 183 156 153 144 179 125 70 261 264 149 147 142 145 149
261 268 275 283 290 299 306 310 312 315 319 323 328 332 344 355 253 299 34 80 105 124 159 156 189 171 287 292 297 217 329 176 131 110 234 127 109 135 100 101 128 138 153 153 161
257 263 270 277 287 297 304 308 310 311 314 321 325 328 354 285 263 51 61 59 124 191 192 182 204 202 268 266 43 17 72 51 72 158 247 92 77 114 177 128 135 145 150 171 171
253 260 267 275 285 296 302 306 305 302 305 313 316 314 312 243 330 312 320 229 187 189 223 217 159 184 252 301 96 106 63 39 307 169 193 127 238 250 157 149 151 157 160 174 185
256 257 265 273 282 296 303 304 300 293 291 292 302 250 248 239 285 293 158 273 224 226 228 203 193 220 207 314 47 105 45 94 261 126 259 126 286 169 147 143 155 164 165 178 188
266 255 261 269 280 297 307 306 298 288 254 192 123 181 266 303 233 256 166 214 188 217 259 297 44 213 23 64 6 42 139 195 270 191 154 137 220 198 157 156 161 164 171 187 195
269 261 259 268 280 304 315 306 297 315 156 171 251 331 276 331 303 272 209 160 244 354 37 55 45 57 35 77 149 325 4 39 338 190 201 192 245 153 171 172 170 169 179 188 200
267 260 257 260 279 320 347 357 340 274 222 202 198 248 283 300 300 219 263 104 116 77 162 3 53 208 184 167 155 55 0 314 272 261 203 219 226 213 188 168 158 178 186 191 202
262 261 260 255 273 317 70 245 247 270 301 232 242 244 261 50 315 283 138 133 140 195 121 31 235 238 150 89 108 107 207 276 287 321 186 177 229 218 184 192 186 186 187 199 207
261 260 255 249 264 342 199 232 300 17 272 282 204 209 207 151 214 262 169 152 137 156 193 169 237 203 219 187 175 227 209 248 235 333 323 121 305 189 202 174 190 203 199 193 197
257 253 249 193 257 166 236 243 314 163 322 267 220 248 169 151 248 212 195 144 103 200 162 221 265 198 177 240 180 266 200 253 249 81 228 154 257 268 183 192 200 198 195 200 197
250 248 241 191 99 202 117 324 275 65 321 232 174 159 159 155 214 232 162 60 155 168 123 245 186 186 219 237 160 245 239 313 224 235 327 269 91 262 132 206 211 209 201 201 201
242 251 234 217 270 254 310 319 101 62 249 272 146 158 138 176 260 159 154 91 159 135 159 223 198 185 209 257 191 196 67 30 72 70 21 271 132 282 194 212 222 212 206 204 202
233 244 198 174 227 295 279 101 126 199 321 217 178 158 168 164 195 193 149 157 154 116 190 103 236 242 196 243 351 82 61 342 351 13 220 10 39 237 279 267 218 213 205 191 188
229 234 244 218 127 350 58 151 211 217 241 299 144 114 178 152 227 187 138 179 260 118 126 165 303 176 208 235 170 132 144 165 223 212 271 346 251 256 239 309 232 211 197 174 177
212 211 239 209 209 28 227 205 195 215 214 249 84 131 228 199 162 160 184 188 192 179 157 144 247 282 201 319 120 180 174 177 100 25 66 252 293 317 329 87 74 152 163 184 180
182 202 228 169 172 153 226 220 202 220 355 345 192 177 174 195 159 157 183 206 203 191 152 204 188 187 305 63 289 176 175 65 22 172 251 284 286 241 302 297 152 169 203 204 171
143 215 187 146 157 161 219 214 221 250 306 330 329 219 208 171 179 174 203 242 199 192 133 139 126 248 131 193 204 162 241 85 125 142 171 216 265 217 243 250 266 269 192 197 187
172 214 160 141 189 193 219 174 215 242 285 306 301 244 225 185 173 192 199 205 184 151 161 204 149 177 205 193 188 194 188 145 131 235 195 157 269 249 236 240 236 253 218 200 193
188 205 177 160 200 206 215 211 237 223 198 212 241 272 6 213 176 185 196 225 176 154 162 182 174 69 334 13 18 225 192 157 117 84 196 148 254 289 256 227 226 237 241 194 203
197 186 177 186 223 194 194 199 209 222 251 338 300 290 285 288 230 200 206 147 179 189 190 114 141 160 190 216 167 209 237 165 144 128 195 221 266 276 244 249 267 235 243 224 192
217 204 182 187 206 198 187 198 202 211 203 199 266 226 176 318 312 178 153 132 49 154 92 131 163 162 217 194 185 232 216 174 180 207 163 247 204 261 262 254 260 213 211 191 200
197 197 155 209 191 200 191 204 198 207 214 203 221 187 205 218 222 282 149 177 184 178 150 285 170 123 119 61 43 236 245 236 230 210 258 255 257 253 322 45 42 54 112 81 75
209 287 188 190 184 195 208 196 199 202 216 238 212 226 226 234 227 244 242 258 197 160 173 139 133 114 224 62 21 321 218 217 228 209 184 205 224 158 61 61 49 52 63 65 54